Weather reports worldwide

Advertisment
Iskele, Cyprus (17535): temperature & dewpoint: 08.08.2020 11:00:00 - 14.08.2020 11:00:00 (EEST)Iskele, Cyprus (17535): wind speed: 08.08.2020 11:00:00 - 14.08.2020 11:00:00 (EEST)Iskele, Cyprus (17535): wind direction: 08.08.2020 11:00:00 - 14.08.2020 11:00:00 (EEST)Iskele, Cyprus (17535): reduced air pressure: 08.08.2020 11:00:00 - 14.08.2020 11:00:00 (EEST)Iskele, Cyprus (17535): visibility: 08.08.2020 11:00:00 - 14.08.2020 11:00:00 (EEST)
Date & Time tt [°C] td [°C] ff [km/h] ff [kn] dd ppp [hPa] vv [km]
14.08.2020 11:00:00 35,9 20,4 0 0 N 1005,1 10
14.08.2020 10:00:00 33,8 18,0 15 8 NW 1004,6 10
14.08.2020 09:00:00 30,7 23,2 21 11 W 1004,6 10
14.08.2020 08:00:00 30,1 23,2 15 8 W 1004,5 10
14.08.2020 07:00:00 29,7 22,0 21 11 WNW 1003,9 10
14.08.2020 06:00:00 29,3 21,9 13 7 W 1003,6 10
14.08.2020 05:00:00 30,2 19,8 35 19 WSW 1003,2 10
14.08.2020 04:00:00 30,7 16,9 44 24 W 1003,1 10
14.08.2020 03:00:00 30,9 14,1 31 17 WSW 1003,1 10
14.08.2020 02:00:00 29,7 14,4 22 12 SW 1003,4 10
14.08.2020 01:00:00 30,0 14,6 18 10 SSW 1003,9 10
14.08.2020 00:00:00 29,8 16,6 31 17 SW 1004,1 10
13.08.2020 23:00:00 29,4 22,3 21 11 SW 1004,5 10
13.08.2020 22:00:00 27,3 19,3 9 5 S 1004,9 10
13.08.2020 21:00:00 29,5 20,2 0 0 N 1004,8 10
13.08.2020 20:00:00 31,3 20,5 5 3 E 1004,6 10
13.08.2020 19:00:00 32,9 24,8 8 4 NE 1004,3 10
13.08.2020 18:00:00 33,6 22,4 11 6 NE 1004,4 10
13.08.2020 17:00:00 34,9 18,7 11 6 ESE 1004,4 10
13.08.2020 16:00:00 34,4 24,9 21 11 E 1004,8 10
13.08.2020 15:00:00 33,4 25,0 13 7 ENE 1005,4 10
13.08.2020 14:00:00 33,7 24,9 21 11 NE 1005,6 10
13.08.2020 13:00:00 33,6 25,1 9 5 NE 1006,0 10
13.08.2020 12:00:00 - - - - - - -
13.08.2020 11:00:00 - - - - - - -
13.08.2020 10:00:00 31,8 23,8 13 7 NE 1006,1 10
13.08.2020 09:00:00 30,2 23,1 9 5 WNW 1005,7 10
13.08.2020 08:00:00 28,0 23,6 9 5 WSW 1005,6 10
13.08.2020 07:00:00 27,2 23,2 5 3 SSE 1005,4 10
13.08.2020 06:00:00 27,5 23,3 0 0 N 1005,2 10
13.08.2020 05:00:00 26,6 22,1 11 6 - 1005,2 10
13.08.2020 04:00:00 25,9 22,4 11 6 W 1005,0 10
13.08.2020 03:00:00 26,0 19,0 0 0 N 1004,6 10
13.08.2020 02:00:00 25,4 20,2 13 7 SSW 1004,5 10
13.08.2020 01:00:00 26,1 21,5 9 5 SE 1005,1 10
13.08.2020 00:00:00 27,2 21,2 5 3 S 1005,6 10
12.08.2020 23:00:00 28,4 20,7 31 17 WSW 1005,8 10
12.08.2020 22:00:00 27,1 18,2 8 4 NW 1006,1 10
12.08.2020 21:00:00 29,0 18,7 0 0 N 1005,8 10
12.08.2020 20:00:00 31,5 18,4 11 6 E 1005,7 10
12.08.2020 19:00:00 33,0 19,7 21 11 ESE 1005,6 10
12.08.2020 18:00:00 33,6 16,9 16 9 S 1006,2 10
12.08.2020 17:00:00 - - - - - - -
12.08.2020 16:00:00 33,1 22,7 18 10 ENE 1006,4 10
12.08.2020 15:00:00 33,0 22,8 18 10 NE 1006,7 10
12.08.2020 14:00:00 32,4 22,1 22 12 ENE 1006,9 10
12.08.2020 13:00:00 33,4 22,7 16 9 E 1007,2 10
12.08.2020 12:00:00 33,4 22,7 16 9 E 1007,2 10
12.08.2020 11:00:00 - - - - - - -
12.08.2020 10:00:00 30,1 22,6 8 4 ESE 1007,3 10
12.08.2020 09:00:00 26,8 22,1 0 0 N 1007,2 10
12.08.2020 08:00:00 25,3 21,6 9 5 SSW 1007,0 10
12.08.2020 07:00:00 22,6 19,4 0 0 N 1006,4 10
12.08.2020 06:00:00 22,6 19,1 0 0 N 1006,2 10
12.08.2020 05:00:00 24,2 20,3 0 0 N 1006,0 10
12.08.2020 04:00:00 23,8 20,0 0 0 N 1005,8 10
12.08.2020 03:00:00 23,3 18,5 0 0 N 1006,0 10
12.08.2020 02:00:00 25,3 19,8 0 0 N 1006,2 10
12.08.2020 01:00:00 24,9 18,9 0 0 N 1006,5 10
12.08.2020 00:00:00 25,8 20,2 0 0 N 1006,6 10
11.08.2020 23:00:00 26,4 21,1 0 0 N 1007,0 10
11.08.2020 22:00:00 28,5 22,6 5 3 N 1007,0 10
11.08.2020 21:00:00 27,9 20,8 5 3 N 1006,7 10
11.08.2020 20:00:00 29,5 21,3 8 4 E 1006,4 10
11.08.2020 19:00:00 31,4 20,1 15 8 SE 1006,5 10
11.08.2020 18:00:00 32,8 20,3 26 14 ESE 1006,7 10
11.08.2020 17:00:00 33,7 20,6 21 11 ESE 1007,0 10
11.08.2020 16:00:00 33,5 20,7 26 14 E 1007,1 10
11.08.2020 15:00:00 34,1 21,3 22 12 ESE 1007,2 10
11.08.2020 14:00:00 33,1 21,8 13 7 N 1007,4 10
11.08.2020 13:00:00 32,4 22,4 24 13 ENE 1007,6 10
11.08.2020 12:00:00 32,7 21,0 13 7 E 1007,6 10
11.08.2020 11:00:00 32,1 21,6 15 8 NNE 1007,7 10
11.08.2020 10:00:00 30,8 19,8 0 0 N 1007,5 10
11.08.2020 09:00:00 26,3 21,9 0 0 N 1007,2 10
11.08.2020 08:00:00 24,8 21,9 0 0 N 1007,6 10
11.08.2020 07:00:00 23,2 20,6 0 0 N 1006,9 10
11.08.2020 06:00:00 23,8 20,5 0 0 N 1006,6 4,0
11.08.2020 05:00:00 24,3 21,5 0 0 N 1006,5 4,0
11.08.2020 04:00:00 23,2 20,0 0 0 N 1006,2 4,0
11.08.2020 03:00:00 24,2 20,4 0 0 N 1006,5 10
11.08.2020 02:00:00 24,8 20,5 5 3 SSW 1006,0 10
11.08.2020 01:00:00 26,7 21,9 16 9 SSW 1006,3 10
11.08.2020 00:00:00 27,6 21,7 15 8 WSW 1006,8 10
10.08.2020 23:00:00 27,8 21,7 18 10 WSW 1006,9 10
10.08.2020 22:00:00 27,9 21,6 13 7 WSW 1006,8 10
10.08.2020 21:00:00 28,5 21,7 13 7 W 1006,2 10
10.08.2020 20:00:00 29,1 20,9 18 10 W 1005,8 10
10.08.2020 19:00:00 31,1 21,8 11 6 N 1005,4 10
10.08.2020 18:00:00 32,8 20,8 0 0 N 1005,0 10
10.08.2020 17:00:00 33,1 20,3 15 8 E 1004,9 10
10.08.2020 16:00:00 33,0 20,0 26 14 E 1005,1 10
10.08.2020 15:00:00 32,9 19,9 13 7 NE 1005,3 10
10.08.2020 14:00:00 32,2 20,8 22 12 E 1005,5 10
10.08.2020 13:00:00 31,1 20,8 21 11 NE 1005,6 10
10.08.2020 12:00:00 - - - - - - -
10.08.2020 11:00:00 31,5 18,4 9 5 SSE 1005,6 10
10.08.2020 10:00:00 30,0 18,3 11 6 S 1005,5 10
10.08.2020 09:00:00 26,2 19,8 11 6 S 1005,2 10
10.08.2020 08:00:00 24,4 20,0 5 3 WSW 1005,1 10
10.08.2020 07:00:00 21,2 18,1 0 0 N 1004,5 10
10.08.2020 06:00:00 21,4 18,0 0 0 N 1004,0 10
10.08.2020 05:00:00 21,9 18,0 8 4 NW 1004,0 10
10.08.2020 04:00:00 23,2 18,5 0 0 N 1004,0 10
10.08.2020 03:00:00 24,4 18,8 9 5 ESE 1004,1 10
10.08.2020 02:00:00 25,0 19,4 8 4 ESE 1004,1 10
10.08.2020 01:00:00 25,8 20,0 11 6 S 1004,4 10
10.08.2020 00:00:00 - - - - - - -
09.08.2020 23:00:00 27,2 20,2 29 16 SW 1004,4 10
09.08.2020 22:00:00 27,6 20,3 22 12 WSW 1004,1 10
09.08.2020 21:00:00 27,9 21,1 22 12 WSW 1003,5 10
09.08.2020 20:00:00 28,7 20,8 24 13 W 1003,1 10
09.08.2020 19:00:00 31,0 20,7 15 8 WSW 1003,2 10
09.08.2020 18:00:00 31,5 20,8 16 9 ENE 1002,9 10
09.08.2020 17:00:00 32,0 19,6 18 10 E 1003,1 10
09.08.2020 16:00:00 32,3 20,4 22 12 E 1003,2 10
09.08.2020 15:00:00 32,4 20,6 22 12 E 1003,4 10
09.08.2020 14:00:00 32,1 21,0 16 9 ENE 1003,8 10
09.08.2020 13:00:00 33,2 19,7 18 10 E 1003,9 10
09.08.2020 12:00:00 31,8 19,3 15 8 ENE 1004,0 10
09.08.2020 11:00:00 31,9 19,5 13 7 NE 1004,0 10
09.08.2020 10:00:00 30,3 18,8 0 0 N 1003,9 10
09.08.2020 09:00:00 27,7 20,2 8 4 WNW 1003,6 10
09.08.2020 08:00:00 24,9 19,1 8 4 WNW 1003,5 10
09.08.2020 07:00:00 20,6 17,0 8 4 WSW 1002,9 10
09.08.2020 06:00:00 20,8 17,0 8 4 WNW 1002,7 10
09.08.2020 05:00:00 21,5 17,7 5 3 NNW 1002,6 10
09.08.2020 04:00:00 21,7 17,5 8 4 NW 1002,5 10
09.08.2020 03:00:00 23,5 18,7 9 5 SSW 1002,7 10
09.08.2020 02:00:00 24,5 19,7 8 4 ESE 1002,5 10
09.08.2020 01:00:00 26,9 20,5 16 9 WSW 1002,8 10
09.08.2020 00:00:00 26,7 20,5 11 6 W 1003,3 10
08.08.2020 23:00:00 27,3 20,8 22 12 SW 1003,4 10
08.08.2020 22:00:00 27,5 20,8 21 11 WSW 1003,6 10
08.08.2020 21:00:00 28,1 20,9 15 8 W 1003,3 10
08.08.2020 20:00:00 29,3 21,1 18 10 W 1003,0 10
08.08.2020 19:00:00 31,5 21,0 22 12 WSW 1003,0 10
08.08.2020 18:00:00 31,6 23,3 11 6 NE 1003,2 10
08.08.2020 17:00:00 32,9 21,8 15 8 N 1003,5 10
08.08.2020 16:00:00 33,7 22,2 9 5 NE 1003,8 10
08.08.2020 15:00:00 33,7 21,1 24 13 ENE 1004,1 10
08.08.2020 14:00:00 35,0 20,5 22 12 ENE 1004,3 10
08.08.2020 13:00:00 33,1 23,3 21 11 E 1005,0 10
08.08.2020 12:00:00 32,9 23,6 18 10 ENE 1005,2 10
08.08.2020 11:00:00 32,5 23,5 21 11 E 1005,5 10

tt = temperature
td = dewpoint
ff = wind speed
dd = wind direction
ppp = reduced air pressure
vv = visibility

Next stations